Time,TemperatureF,DewpointF,PressureIn,WindDirection,WindDirectionDegrees,WindSpeedMPH,WindSpeedGustMPH,Humidity,HourlyPrecipIn,Conditions,Clouds,dailyrainin,SoftwareType,DateUTC
2013-03-17 00:02:00,29.1,21.9,29.92,NNW,344,0.0,0.0,74,0.00,,OVC024,0.00,VWS V14.01,2013-03-17 04:02:00,
2013-03-17 00:07:00,29.1,21.9,29.92,NNW,343,0.0,0.0,74,0.00,,OVC024,0.00,VWS V14.01,2013-03-17 04:07:00,
2013-03-17 00:13:00,29.1,21.9,29.92,NNE,17,0.0,0.0,74,0.00,,OVC024,0.00,VWS V14.01,2013-03-17 04:13:00,
2013-03-17 00:22:00,29.1,21.9,29.92,North,6,0.0,0.0,74,0.00,,OVC024,0.00,VWS V14.01,2013-03-17 04:22:00,
2013-03-17 00:27:00,29.0,21.8,29.92,NNE,14,0.0,0.0,74,0.00,,OVC024,0.00,VWS V14.01,2013-03-17 04:27:00,
2013-03-17 00:32:00,29.0,21.8,29.92,North,7,0.0,0.0,74,0.00,,OVC024,0.00,VWS V14.01,2013-03-17 04:32:00,
2013-03-17 00:37:00,29.0,21.4,29.92,North,350,0.0,0.0,73,0.00,,OVC024,0.00,VWS V14.01,2013-03-17 04:37:00,
2013-03-17 00:42:00,29.0,21.4,29.92,North,353,0.0,0.0,73,0.00,,OVC024,0.00,VWS V14.01,2013-03-17 04:42:00,
2013-03-17 00:47:00,29.0,21.4,29.92,North,359,0.0,0.0,73,0.00,,OVC024,0.00,VWS V14.01,2013-03-17 04:47:00,
2013-03-17 00:52:00,29.0,21.4,29.92,North,11,0.0,0.0,73,0.00,,OVC024,0.00,VWS V14.01,2013-03-17 04:52:00,
2013-03-17 01:02:00,28.8,20.9,29.92,NNE,13,0.0,0.0,72,0.00,,OVC024,0.00,VWS V14.01,2013-03-17 05:02:00,
2013-03-17 01:12:00,28.5,21.0,29.92,North,10,0.0,0.0,73,0.00,,OVC024,0.00,VWS V14.01,2013-03-17 05:12:00,
2013-03-17 01:17:00,28.5,21.3,29.93,North,10,0.0,0.0,74,0.00,,OVC024,0.00,VWS V14.01,2013-03-17 05:17:00,
2013-03-17 01:27:00,28.8,21.6,29.93,North,352,0.0,0.0,74,0.00,,OVC024,0.00,VWS V14.01,2013-03-17 05:27:00,
2013-03-17 01:32:00,29.0,21.8,29.93,North,349,0.0,0.0,74,0.00,,OVC024,0.00,VWS V14.01,2013-03-17 05:32:00,
2013-03-17 01:37:00,29.1,21.9,29.93,NNW,344,0.0,0.0,74,0.00,,OVC024,0.00,VWS V14.01,2013-03-17 05:37:00,
2013-03-17 01:42:00,29.1,21.5,29.93,North,8,0.0,0.0,73,0.00,,OVC024,0.00,VWS V14.01,2013-03-17 05:42:00,
2013-03-17 01:52:00,29.1,21.2,29.93,NE,37,0.0,0.0,72,0.00,,OVC024,0.00,VWS V14.01,2013-03-17 05:52:00,
2013-03-17 01:57:00,29.1,21.2,29.93,NNE,20,0.0,0.0,72,0.00,,OVC024,0.00,VWS V14.01,2013-03-17 05:57:00,
2013-03-17 02:02:00,29.1,21.5,29.93,NNE,24,0.0,0.0,73,0.00,,OVC024,0.00,VWS V14.01,2013-03-17 06:02:00,
2013-03-17 02:12:00,29.1,21.2,29.93,North,4,0.0,0.0,72,0.00,,OVC024,0.00,VWS V14.01,2013-03-17 06:12:00,
2013-03-17 02:17:00,29.1,21.2,29.93,North,10,0.0,0.0,72,0.00,,OVC024,0.00,VWS V14.01,2013-03-17 06:17:00,
2013-03-17 02:22:00,29.1,21.5,29.93,NNE,27,0.0,0.0,73,0.00,,OVC024,0.00,VWS V14.01,2013-03-17 06:22:00,
2013-03-17 02:27:00,29.1,21.2,29.93,NNE,18,0.0,0.0,72,0.00,,OVC024,0.00,VWS V14.01,2013-03-17 06:27:00,
2013-03-17 02:32:00,29.1,21.2,29.93,North,0,0.0,0.0,72,0.00,,OVC024,0.00,VWS V14.01,2013-03-17 06:32:00,
2013-03-17 02:37:00,29.1,20.9,29.93,NNE,14,0.0,0.0,71,0.00,,OVC024,0.00,VWS V14.01,2013-03-17 06:37:00,
2013-03-17 02:42:00,29.1,20.9,29.93,North,353,0.0,0.0,71,0.00,,OVC024,0.00,VWS V14.01,2013-03-17 06:42:00,
2013-03-17 02:47:00,29.1,20.2,29.93,North,0,0.0,0.0,69,0.00,,OVC024,0.00,VWS V14.01,2013-03-17 06:47:00,
2013-03-17 02:57:00,29.3,20.7,29.93,NE,38,0.0,0.0,70,0.00,,OVC024,0.00,VWS V14.01,2013-03-17 06:57:00,
2013-03-17 03:02:00,29.3,21.1,29.94,North,4,0.0,0.0,71,0.00,,OVC024,0.00,VWS V14.01,2013-03-17 07:02:00,
2013-03-17 03:12:00,29.3,20.7,29.94,North,3,0.0,0.0,70,0.00,,OVC024,0.00,VWS V14.01,2013-03-17 07:12:00,
2013-03-17 03:17:00,29.3,20.7,29.94,NNE,30,0.0,0.0,70,0.00,,OVC024,0.00,VWS V14.01,2013-03-17 07:17:00,
2013-03-17 03:27:00,29.3,20.7,29.94,NNE,14,0.0,0.0,70,0.00,,OVC024,0.00,VWS V14.01,2013-03-17 07:27:00,
2013-03-17 03:32:00,29.4,20.8,29.94,North,10,0.0,0.0,70,0.00,,OVC024,0.00,VWS V14.01,2013-03-17 07:32:00,
2013-03-17 03:37:00,29.4,20.8,29.94,NNE,14,0.0,0.0,70,0.00,,OVC024,0.00,VWS V14.01,2013-03-17 07:37:00,
2013-03-17 03:42:00,29.4,21.2,29.94,NNE,16,0.0,0.0,71,0.00,,OVC026,0.00,VWS V14.01,2013-03-17 07:42:00,
2013-03-17 03:52:00,29.4,21.2,29.94,NE,38,0.0,0.0,71,0.00,,OVC026,0.00,VWS V14.01,2013-03-17 07:52:00,
2013-03-17 03:57:00,29.4,21.5,29.94,NNE,20,0.0,0.0,72,0.00,,OVC026,0.00,VWS V14.01,2013-03-17 07:57:00,
2013-03-17 04:02:00,29.4,21.2,29.94,North,10,0.0,0.0,71,0.00,,OVC026,0.00,VWS V14.01,2013-03-17 08:02:00,
2013-03-17 04:12:00,29.4,21.2,29.94,NNE,14,0.0,0.0,71,0.00,,OVC026,0.00,VWS V14.01,2013-03-17 08:12:00,
2013-03-17 04:17:00,29.3,21.1,29.93,North,6,0.0,0.0,71,0.00,,OVC026,0.00,VWS V14.01,2013-03-17 08:17:00,
2013-03-17 04:22:00,29.4,21.5,29.93,North,1,0.0,0.0,72,0.00,,OVC026,0.00,VWS V14.01,2013-03-17 08:22:00,
2013-03-17 04:27:00,29.3,21.4,29.93,NNE,32,0.0,0.0,72,0.00,,OVC026,0.00,VWS V14.01,2013-03-17 08:27:00,
2013-03-17 04:32:00,29.4,20.8,29.93,NNE,21,0.0,0.0,70,0.00,,OVC026,0.00,VWS V14.01,2013-03-17 08:32:00,
2013-03-17 04:42:00,29.4,20.8,29.93,North,10,0.0,0.0,70,0.00,,OVC024,0.00,VWS V14.01,2013-03-17 08:42:00,
2013-03-17 04:47:00,29.4,20.8,29.94,NNE,28,0.0,0.0,70,0.00,,OVC024,0.00,VWS V14.01,2013-03-17 08:47:00,
2013-03-17 04:52:00,29.4,20.8,29.94,NNE,28,0.0,0.0,70,0.00,,OVC024,0.00,VWS V14.01,2013-03-17 08:52:00,
2013-03-17 04:57:00,29.4,20.8,29.94,NNE,28,0.0,0.0,70,0.00,,OVC024,0.00,VWS V14.01,2013-03-17 08:57:00,
2013-03-17 05:07:00,29.4,20.8,29.94,NNE,31,0.0,0.0,70,0.00,,OVC024,0.00,VWS V14.01,2013-03-17 09:07:00,
2013-03-17 05:12:00,29.4,21.2,29.94,NE,35,0.0,0.0,71,0.00,,OVC024,0.00,VWS V14.01,2013-03-17 09:12:00,
2013-03-17 05:17:00,29.4,21.2,29.93,NE,42,0.0,0.0,71,0.00,,OVC024,0.00,VWS V14.01,2013-03-17 09:17:00,
2013-03-17 05:27:00,29.4,21.5,29.93,NE,42,0.0,0.0,72,0.00,,OVC024,0.00,VWS V14.01,2013-03-17 09:27:00,
2013-03-17 05:32:00,29.4,21.5,29.93,NE,44,0.0,0.0,72,0.00,,OVC024,0.00,VWS V14.01,2013-03-17 09:32:00,
2013-03-17 05:42:00,29.4,21.5,29.93,NE,44,0.0,0.0,72,0.00,,OVC022,0.00,VWS V14.01,2013-03-17 09:42:00,
2013-03-17 05:47:00,29.5,21.6,29.93,NE,45,0.0,0.0,72,0.00,,OVC022,0.00,VWS V14.01,2013-03-17 09:47:00,
2013-03-17 05:52:00,29.5,21.6,29.93,NE,44,0.0,0.0,72,0.00,,OVC022,0.00,VWS V14.01,2013-03-17 09:52:00,
2013-03-17 05:57:00,29.5,21.6,29.93,NE,47,0.0,0.0,72,0.00,,OVC022,0.00,VWS V14.01,2013-03-17 09:57:00,
2013-03-17 06:02:00,29.5,21.6,29.93,NE,52,0.0,0.0,72,0.00,,OVC022,0.00,VWS V14.01,2013-03-17 10:02:00,
2013-03-17 06:12:00,29.5,21.6,29.93,NE,52,0.0,0.0,72,0.00,,OVC022,0.00,VWS V14.01,2013-03-17 10:12:00,
2013-03-17 06:22:00,29.7,21.8,29.95,NE,52,0.0,0.0,72,0.00,,OVC022,0.00,VWS V14.01,2013-03-17 10:22:00,
2013-03-17 06:27:00,29.7,21.8,29.95,NE,54,0.0,0.0,72,0.00,,OVC022,0.00,VWS V14.01,2013-03-17 10:27:00,
2013-03-17 06:37:00,29.5,21.9,29.95,NE,56,0.0,0.0,73,0.00,,OVC022,0.00,VWS V14.01,2013-03-17 10:37:00,
2013-03-17 06:47:00,29.5,22.2,29.96,ENE,61,0.0,0.0,74,0.00,,OVC030,0.00,VWS V14.01,2013-03-17 10:47:00,
2013-03-17 06:52:00,29.5,22.2,29.96,ENE,64,0.0,0.0,74,0.00,,OVC030,0.00,VWS V14.01,2013-03-17 10:52:00,
2013-03-17 06:57:00,29.5,22.2,29.96,ENE,61,0.0,0.0,74,0.00,,OVC030,0.00,VWS V14.01,2013-03-17 10:57:00,
2013-03-17 07:07:00,29.5,22.6,29.97,ENE,61,0.0,0.0,75,0.00,,OVC030,0.00,VWS V14.01,2013-03-17 11:07:00,
2013-03-17 07:12:00,29.5,22.6,29.97,ENE,61,0.0,0.0,75,0.00,,OVC030,0.00,VWS V14.01,2013-03-17 11:12:00,
2013-03-17 07:22:00,29.4,22.5,29.98,ENE,62,0.0,0.0,75,0.00,,OVC030,0.00,VWS V14.01,2013-03-17 11:22:00,
2013-03-17 07:32:00,29.5,22.6,29.99,ENE,62,0.0,0.0,75,0.00,,OVC030,0.00,VWS V14.01,2013-03-17 11:32:00,
2013-03-17 07:42:00,29.5,22.6,29.99,ENE,62,0.0,0.0,75,0.00,,OVC027,0.00,VWS V14.01,2013-03-17 11:42:00,
2013-03-17 07:47:00,29.5,22.6,30.00,ENE,62,0.0,0.0,75,0.00,,OVC027,0.00,VWS V14.01,2013-03-17 11:47:00,
2013-03-17 07:52:00,29.4,22.5,30.00,ENE,62,0.0,0.0,75,0.00,,OVC027,0.00,VWS V14.01,2013-03-17 11:52:00,
2013-03-17 07:57:00,29.4,22.5,30.00,ENE,62,0.0,0.0,75,0.00,,OVC027,0.00,VWS V14.01,2013-03-17 11:57:00,
2013-03-17 08:02:00,29.4,22.5,30.01,ENE,62,0.0,0.0,75,0.00,,OVC027,0.00,VWS V14.01,2013-03-17 12:02:00,
2013-03-17 08:07:00,29.4,22.1,30.01,ENE,62,0.0,0.0,74,0.00,,OVC027,0.00,VWS V14.01,2013-03-17 12:07:00,
2013-03-17 08:17:00,29.5,22.2,30.01,ENE,62,0.0,0.0,74,0.00,,OVC027,0.00,VWS V14.01,2013-03-17 12:17:00,
2013-03-17 08:22:00,29.5,22.6,30.01,ENE,62,0.0,0.0,75,0.00,,OVC027,0.00,VWS V14.01,2013-03-17 12:22:00,
2013-03-17 08:27:00,29.5,22.6,30.01,ENE,62,0.0,0.0,75,0.00,,OVC027,0.00,VWS V14.01,2013-03-17 12:27:00,
2013-03-17 08:37:00,29.7,22.8,30.02,ENE,62,0.0,0.0,75,0.00,,OVC027,0.00,VWS V14.01,2013-03-17 12:37:00,
2013-03-17 08:42:00,29.7,22.8,30.02,ENE,64,0.0,0.0,75,0.00,,OVC027,0.00,VWS V14.01,2013-03-17 12:42:00,
2013-03-17 08:47:00,29.7,22.4,30.02,ENE,64,0.0,0.0,74,0.00,,OVC027,0.00,VWS V14.01,2013-03-17 12:47:00,
2013-03-17 08:52:00,29.8,22.9,30.02,ENE,65,0.0,0.0,75,0.00,,OVC027,0.00,VWS V14.01,2013-03-17 12:52:00,
2013-03-17 08:57:00,29.8,22.9,30.02,East,83,0.0,0.0,75,0.00,,OVC027,0.00,VWS V14.01,2013-03-17 12:57:00,
2013-03-17 09:07:00,29.8,22.5,30.02,East,85,0.0,0.0,74,0.00,,OVC027,0.00,VWS V14.01,2013-03-17 13:07:00,
2013-03-17 09:12:00,30.0,22.7,30.02,East,85,0.0,0.0,74,0.00,,OVC027,0.00,VWS V14.01,2013-03-17 13:12:00,
2013-03-17 09:22:00,30.0,22.4,30.03,East,92,0.0,0.0,73,0.00,,OVC027,0.00,VWS V14.01,2013-03-17 13:22:00,
2013-03-17 09:32:00,30.3,22.4,30.03,East,93,0.0,0.0,72,0.00,,OVC027,0.00,VWS V14.01,2013-03-17 13:32:00,
2013-03-17 09:37:00,30.3,22.4,30.03,East,99,0.0,0.0,72,0.00,,OVC027,0.00,VWS V14.01,2013-03-17 13:37:00,
2013-03-17 09:42:00,30.1,21.9,30.03,East,90,0.0,0.0,71,0.00,,OVC034,0.00,VWS V14.01,2013-03-17 13:42:00,
2013-03-17 09:52:00,30.3,22.0,30.02,East,89,0.0,0.0,71,0.00,,OVC034,0.00,VWS V14.01,2013-03-17 13:52:00,
2013-03-17 10:02:00,30.4,21.8,30.03,East,80,0.0,0.0,70,0.00,,OVC034,0.00,VWS V14.01,2013-03-17 14:02:00,
2013-03-17 10:07:00,30.7,22.4,30.03,ENE,73,0.0,0.0,71,0.00,,OVC034,0.00,VWS V14.01,2013-03-17 14:07:00,
2013-03-17 10:17:00,30.6,21.6,30.03,East,79,0.0,0.0,69,0.00,,OVC034,0.00,VWS V14.01,2013-03-17 14:17:00,
2013-03-17 10:27:00,30.7,21.8,30.03,East,82,0.0,0.0,69,0.00,,OVC034,0.00,VWS V14.01,2013-03-17 14:27:00,
2013-03-17 10:32:00,30.9,21.9,30.02,East,85,0.0,0.0,69,0.00,,OVC034,0.00,VWS V14.01,2013-03-17 14:32:00,
2013-03-17 10:42:00,31.0,21.7,30.02,ENE,78,0.0,0.0,68,0.00,,CLR,0.00,VWS V14.01,2013-03-17 14:42:00,
2013-03-17 10:47:00,31.2,21.9,30.02,ENE,76,0.0,0.0,68,0.00,,CLR,0.00,VWS V14.01,2013-03-17 14:47:00,
2013-03-17 10:52:00,31.3,22.0,30.02,ENE,72,0.0,0.0,68,0.00,,CLR,0.00,VWS V14.01,2013-03-17 14:52:00,
2013-03-17 10:57:00,31.2,21.9,30.02,ENE,66,0.0,0.0,68,0.00,,CLR,0.00,VWS V14.01,2013-03-17 14:57:00,
2013-03-17 11:07:00,31.3,21.6,30.02,ENE,78,0.0,0.0,67,0.00,,CLR,0.00,VWS V14.01,2013-03-17 15:07:00,
2013-03-17 11:12:00,31.2,21.5,30.02,ENE,72,0.0,0.0,67,0.00,,CLR,0.00,VWS V14.01,2013-03-17 15:12:00,
2013-03-17 11:17:00,31.3,21.6,30.02,ENE,71,0.0,0.0,67,0.00,,CLR,0.00,VWS V14.01,2013-03-17 15:17:00,
2013-03-17 11:22:00,31.3,21.3,30.02,ENE,72,0.0,0.0,66,0.00,,CLR,0.00,VWS V14.01,2013-03-17 15:22:00,
2013-03-17 11:27:00,31.3,21.3,30.02,ENE,76,0.0,0.0,66,0.00,,CLR,0.00,VWS V14.01,2013-03-17 15:27:00,
2013-03-17 11:32:00,31.5,21.1,30.03,East,79,0.0,0.0,65,0.00,,CLR,0.00,VWS V14.01,2013-03-17 15:32:00,
2013-03-17 11:37:00,31.8,21.4,30.03,East,93,0.0,0.0,65,0.00,,CLR,0.00,VWS V14.01,2013-03-17 15:37:00,
2013-03-17 11:47:00,31.3,20.9,30.03,East,82,0.0,0.0,65,0.00,,SCT031,0.00,VWS V14.01,2013-03-17 15:47:00,
2013-03-17 11:57:00,31.5,21.1,30.03,East,88,0.0,0.0,65,0.00,,SCT031,0.00,VWS V14.01,2013-03-17 15:57:00,
2013-03-17 12:02:00,31.2,20.8,30.03,East,80,0.0,0.0,65,0.00,,SCT031,0.00,VWS V14.01,2013-03-17 16:02:00,
2013-03-17 12:07:00,31.0,21.0,30.03,East,90,0.0,0.0,66,0.00,,SCT031,0.00,VWS V14.01,2013-03-17 16:07:00,
2013-03-17 12:12:00,31.3,21.3,30.03,ENE,75,0.0,0.0,66,0.00,,SCT031,0.00,VWS V14.01,2013-03-17 16:12:00,
2013-03-17 12:17:00,31.6,21.2,30.03,ENE,71,0.0,0.0,65,0.00,,SCT031,0.00,VWS V14.01,2013-03-17 16:17:00,
2013-03-17 12:27:00,32.2,20.7,30.03,East,92,0.0,0.0,62,0.00,,SCT031,0.00,VWS V14.01,2013-03-17 16:27:00,
2013-03-17 12:37:00,32.1,20.9,30.03,East,83,0.0,0.0,63,0.00,,SCT031,0.00,VWS V14.01,2013-03-17 16:37:00,
2013-03-17 12:42:00,31.3,20.2,30.03,SE,133,0.0,0.0,63,0.00,,OVC031,0.00,VWS V14.01,2013-03-17 16:42:00,
2013-03-17 12:47:00,31.2,20.5,30.03,ESE,107,0.0,0.0,64,0.00,,OVC031,0.00,VWS V14.01,2013-03-17 16:47:00,
2013-03-17 12:52:00,31.6,21.2,30.03,ENE,69,0.0,0.0,65,0.00,,OVC031,0.00,VWS V14.01,2013-03-17 16:52:00,
2013-03-17 12:57:00,31.5,20.4,30.03,ESE,109,0.0,0.0,63,0.00,,OVC031,0.00,VWS V14.01,2013-03-17 16:57:00,
2013-03-17 13:02:00,31.5,20.7,30.03,East,83,0.0,0.0,64,0.00,,OVC031,0.00,VWS V14.01,2013-03-17 17:02:00,
2013-03-17 13:12:00,32.1,21.3,30.03,East,88,0.0,0.0,64,0.00,,OVC031,0.00,VWS V14.01,2013-03-17 17:12:00,
2013-03-17 13:17:00,31.8,21.0,30.03,ESE,114,0.0,0.0,64,0.00,,OVC031,0.00,VWS V14.01,2013-03-17 17:17:00,
2013-03-17 13:22:00,31.6,20.8,30.03,East,86,0.0,0.0,64,0.00,,OVC031,0.00,VWS V14.01,2013-03-17 17:22:00,
2013-03-17 13:32:00,31.9,21.9,30.03,ENE,78,0.0,0.0,66,0.00,,OVC031,0.00,VWS V14.01,2013-03-17 17:32:00,
2013-03-17 13:42:00,31.5,21.5,30.03,ESE,113,0.0,0.0,66,0.00,,OVC031,0.00,VWS V14.01,2013-03-17 17:42:00,
2013-03-17 13:47:00,31.3,20.9,30.03,East,97,0.0,0.0,65,0.00,,OVC031,0.00,VWS V14.01,2013-03-17 17:47:00,
2013-03-17 13:52:00,31.6,20.8,30.03,East,79,0.0,0.0,64,0.00,,OVC031,0.00,VWS V14.01,2013-03-17 17:52:00,
2013-03-17 13:57:00,31.5,21.1,30.03,East,99,0.0,0.0,65,0.00,,OVC031,0.00,VWS V14.01,2013-03-17 17:57:00,
2013-03-17 14:07:00,31.5,21.1,30.03,ENE,75,0.0,0.0,65,0.00,,OVC031,0.00,VWS V14.01,2013-03-17 18:07:00,
2013-03-17 14:12:00,32.4,22.0,30.03,ENE,76,0.0,0.0,65,0.00,,OVC031,0.00,VWS V14.01,2013-03-17 18:12:00,
2013-03-17 14:17:00,32.4,20.9,30.03,ENE,76,0.0,0.0,62,0.00,,OVC031,0.00,VWS V14.01,2013-03-17 18:17:00,
2013-03-17 14:22:00,32.2,20.7,30.03,East,86,0.0,0.0,62,0.00,,OVC031,0.00,VWS V14.01,2013-03-17 18:22:00,
2013-03-17 14:27:00,31.9,20.0,30.03,ESE,117,0.0,0.0,61,0.00,,OVC031,0.00,VWS V14.01,2013-03-17 18:27:00,
2013-03-17 14:32:00,32.4,20.5,30.02,East,82,0.0,0.0,61,0.00,,OVC031,0.00,VWS V14.01,2013-03-17 18:32:00,
2013-03-17 14:37:00,32.7,20.0,30.02,ENE,73,0.0,0.0,59,0.00,,OVC031,0.00,VWS V14.01,2013-03-17 18:37:00,
2013-03-17 14:47:00,33.1,20.7,30.01,ESE,106,0.0,0.0,60,0.00,,BKN031,0.00,VWS V14.01,2013-03-17 18:47:00,
2013-03-17 14:52:00,33.2,20.4,30.01,ESE,107,0.0,0.0,59,0.00,,BKN031,0.00,VWS V14.01,2013-03-17 18:52:00,
2013-03-17 14:57:00,34.1,19.6,30.01,East,100,0.0,0.0,55,0.00,,BKN031,0.00,VWS V14.01,2013-03-17 18:57:00,
2013-03-17 15:12:00,35.9,20.0,30.00,ESE,104,0.0,0.0,52,0.00,,BKN031,0.00,VWS V14.01,2013-03-17 19:12:00,
2013-03-17 15:22:00,35.6,20.2,29.99,ENE,73,0.0,0.0,53,0.00,,BKN031,0.00,VWS V14.01,2013-03-17 19:22:00,
2013-03-17 15:27:00,35.3,20.3,29.99,East,92,0.0,0.0,54,0.00,,BKN031,0.00,VWS V14.01,2013-03-17 19:27:00,
2013-03-17 15:32:00,35.0,20.5,29.98,ENE,59,0.0,0.0,55,0.00,,BKN031,0.00,VWS V14.01,2013-03-17 19:32:00,
2013-03-17 15:37:00,35.8,20.4,29.98,ENE,73,0.0,0.0,53,0.00,,BKN031,0.00,VWS V14.01,2013-03-17 19:37:00,
2013-03-17 15:47:00,35.6,21.0,29.98,ENE,64,0.0,0.0,55,0.00,,SCT035,0.00,VWS V14.01,2013-03-17 19:47:00,
2013-03-17 15:57:00,35.5,19.6,29.98,ENE,75,0.0,0.0,52,0.00,,SCT035,0.00,VWS V14.01,2013-03-17 19:57:00,
2013-03-17 16:02:00,36.2,19.8,29.98,ESE,109,0.0,0.0,51,0.00,,SCT035,0.00,VWS V14.01,2013-03-17 20:02:00,
2013-03-17 16:07:00,37.2,19.8,29.98,ESE,114,0.0,0.0,49,0.00,,SCT035,0.00,VWS V14.01,2013-03-17 20:07:00,
2013-03-17 16:12:00,38.5,21.0,29.98,ESE,107,0.0,0.0,49,0.00,,SCT035,0.00,VWS V14.01,2013-03-17 20:12:00,
2013-03-17 16:17:00,37.8,19.9,29.98,East,79,0.0,0.0,48,0.00,,SCT035,0.00,VWS V14.01,2013-03-17 20:17:00,
2013-03-17 16:22:00,38.5,20.5,29.98,East,88,0.0,0.0,48,0.00,,SCT035,0.00,VWS V14.01,2013-03-17 20:22:00,
2013-03-17 16:32:00,37.6,20.7,29.97,East,93,0.0,0.0,50,0.00,,SCT035,0.00,VWS V14.01,2013-03-17 20:32:00,
2013-03-17 16:37:00,37.2,19.8,29.97,ENE,64,0.0,0.0,49,0.00,,SCT035,0.00,VWS V14.01,2013-03-17 20:37:00,
2013-03-17 16:42:00,36.9,19.1,29.97,East,97,0.0,0.0,48,0.00,,FEW037,0.00,VWS V14.01,2013-03-17 20:42:00,
2013-03-17 16:52:00,36.0,20.1,29.95,ESE,107,0.0,0.0,52,0.00,,FEW037,0.00,VWS V14.01,2013-03-17 20:52:00,
2013-03-17 17:02:00,37.0,21.9,29.95,East,82,0.0,0.0,54,0.00,,FEW037,0.00,VWS V14.01,2013-03-17 21:02:00,
2013-03-17 17:07:00,36.9,20.5,29.95,ESE,116,0.0,0.0,51,0.00,,FEW037,0.00,VWS V14.01,2013-03-17 21:07:00,
2013-03-17 17:16:00,37.3,20.9,29.94,East,83,0.0,0.0,51,0.00,,FEW037,0.00,VWS V14.01,2013-03-17 21:16:00,
2013-03-17 17:21:00,37.0,20.6,29.94,ESE,116,0.0,0.0,51,0.00,,FEW037,0.00,VWS V14.01,2013-03-17 21:21:00,
2013-03-17 17:27:00,37.2,21.2,29.94,East,100,0.0,0.0,52,0.00,,FEW037,0.00,VWS V14.01,2013-03-17 21:27:00,
2013-03-17 17:37:00,36.8,20.8,29.93,East,83,0.0,0.0,52,0.00,,FEW037,0.00,VWS V14.01,2013-03-17 21:37:00,
2013-03-17 17:47:00,36.2,21.2,29.92,ESE,103,0.0,0.0,54,0.00,,CLR,0.00,VWS V14.01,2013-03-17 21:47:00,
2013-03-17 17:52:00,36.3,20.8,29.92,East,86,0.0,0.0,53,0.00,,CLR,0.00,VWS V14.01,2013-03-17 21:52:00,
2013-03-17 17:57:00,35.9,20.9,29.92,East,90,0.0,0.0,54,0.00,,CLR,0.00,VWS V14.01,2013-03-17 21:57:00,
2013-03-17 18:02:00,35.6,21.0,29.92,ENE,66,0.0,0.0,55,0.00,,CLR,0.00,VWS V14.01,2013-03-17 22:02:00,
2013-03-17 18:12:00,35.3,22.0,29.92,East,85,0.0,0.0,58,0.00,,CLR,0.00,VWS V14.01,2013-03-17 22:12:00,
2013-03-17 18:22:00,34.9,21.6,29.93,ESE,109,0.0,0.0,58,0.00,,CLR,0.00,VWS V14.01,2013-03-17 22:22:00,
2013-03-17 18:27:00,34.7,21.5,29.93,ESE,112,0.0,0.0,58,0.00,,CLR,0.00,VWS V14.01,2013-03-17 22:27:00,
2013-03-17 18:32:00,34.4,21.6,29.93,ESE,112,0.0,0.0,59,0.00,,CLR,0.00,VWS V14.01,2013-03-17 22:32:00,
2013-03-17 18:37:00,34.0,21.6,29.93,East,79,0.0,0.0,60,0.00,,CLR,0.00,VWS V14.01,2013-03-17 22:37:00,
2013-03-17 18:42:00,33.7,21.7,29.93,ENE,76,0.0,0.0,61,0.00,,CLR,0.00,VWS V14.01,2013-03-17 22:42:00,
2013-03-17 18:47:00,33.1,21.5,29.94,East,92,0.0,0.0,62,0.00,,CLR,0.00,VWS V14.01,2013-03-17 22:47:00,
2013-03-17 18:57:00,33.1,21.9,29.94,ENE,69,0.0,0.0,63,0.00,,CLR,0.00,VWS V14.01,2013-03-17 22:57:00,
2013-03-17 19:02:00,32.7,21.5,29.95,East,95,0.0,0.0,63,0.00,,CLR,0.00,VWS V14.01,2013-03-17 23:02:00,
2013-03-17 19:12:00,32.4,21.2,29.95,ESE,103,0.0,0.0,63,0.00,,CLR,0.00,VWS V14.01,2013-03-17 23:12:00,
2013-03-17 19:17:00,32.2,21.4,29.95,East,97,0.0,0.0,64,0.00,,CLR,0.00,VWS V14.01,2013-03-17 23:17:00,
2013-03-17 19:27:00,31.9,21.1,29.95,ESE,107,0.0,0.0,64,0.00,,CLR,0.00,VWS V14.01,2013-03-17 23:27:00,
2013-03-17 19:32:00,31.8,21.4,29.96,East,88,0.0,0.0,65,0.00,,CLR,0.00,VWS V14.01,2013-03-17 23:32:00,
2013-03-17 19:37:00,31.8,21.4,29.96,ESE,110,0.0,0.0,65,0.00,,CLR,0.00,VWS V14.01,2013-03-17 23:37:00,
2013-03-17 19:42:00,31.8,21.4,29.96,ESE,109,0.0,0.0,65,0.00,,CLR,0.00,VWS V14.01,2013-03-17 23:42:00,
2013-03-17 19:52:00,31.5,21.5,29.96,ENE,76,0.0,0.0,66,0.00,,CLR,0.00,VWS V14.01,2013-03-17 23:52:00,
2013-03-17 19:57:00,31.3,21.3,29.96,East,95,0.0,0.0,66,0.00,,CLR,0.00,VWS V14.01,2013-03-17 23:57:00,
2013-03-17 20:02:00,31.3,21.6,29.96,East,100,0.0,0.0,67,0.00,,CLR,0.00,VWS V14.01,2013-03-18 00:02:00,
2013-03-17 20:12:00,30.9,21.6,29.96,East,97,0.0,0.0,68,0.00,,CLR,0.00,VWS V14.01,2013-03-18 00:12:00,
2013-03-17 20:17:00,30.9,21.6,29.96,East,89,0.0,0.0,68,0.00,,CLR,0.00,VWS V14.01,2013-03-18 00:17:00,
2013-03-17 20:22:00,30.7,21.4,29.96,ENE,65,0.0,0.0,68,0.00,,CLR,0.00,VWS V14.01,2013-03-18 00:22:00,
2013-03-17 20:27:00,30.7,21.8,29.96,East,83,0.0,0.0,69,0.00,,CLR,0.00,VWS V14.01,2013-03-18 00:27:00,
2013-03-17 20:37:00,30.6,21.6,29.95,East,85,0.0,0.0,69,0.00,,CLR,0.00,VWS V14.01,2013-03-18 00:37:00,
2013-03-17 20:42:00,30.6,21.6,29.95,East,83,0.0,0.0,69,0.00,,CLR,0.00,VWS V14.01,2013-03-18 00:42:00,
2013-03-17 20:47:00,30.6,21.6,29.94,East,79,0.0,0.0,69,0.00,,CLR,0.00,VWS V14.01,2013-03-18 00:47:00,
2013-03-17 20:52:00,30.4,21.5,29.94,East,79,0.0,0.0,69,0.00,,CLR,0.00,VWS V14.01,2013-03-18 00:52:00,
2013-03-17 21:02:00,30.4,21.8,29.94,ENE,76,0.0,0.0,70,0.00,,CLR,0.00,VWS V14.01,2013-03-18 01:02:00,
2013-03-17 21:07:00,30.4,21.8,29.94,East,79,0.0,0.0,70,0.00,,CLR,0.00,VWS V14.01,2013-03-18 01:07:00,
2013-03-17 21:12:00,30.4,22.1,29.94,East,100,0.0,0.0,71,0.00,,CLR,0.00,VWS V14.01,2013-03-18 01:12:00,
2013-03-17 21:17:00,30.4,21.5,29.94,East,88,0.0,0.0,69,0.00,,CLR,0.00,VWS V14.01,2013-03-18 01:17:00,
2013-03-17 21:22:00,30.4,21.5,29.94,East,95,0.0,0.0,69,0.00,,CLR,0.00,VWS V14.01,2013-03-18 01:22:00,
2013-03-17 21:27:00,30.3,21.4,29.94,East,88,0.0,0.0,69,0.00,,CLR,0.00,VWS V14.01,2013-03-18 01:27:00,
2013-03-17 21:32:00,30.3,21.4,29.93,East,86,0.0,0.0,69,0.00,,CLR,0.00,VWS V14.01,2013-03-18 01:32:00,
2013-03-17 21:42:00,30.0,21.1,29.93,ESE,104,0.0,0.0,69,0.00,,CLR,0.00,VWS V14.01,2013-03-18 01:42:00,
2013-03-17 21:47:00,30.0,21.4,29.92,ENE,75,0.0,0.0,70,0.00,,CLR,0.00,VWS V14.01,2013-03-18 01:47:00,
2013-03-17 21:52:00,30.0,21.4,29.92,ENE,69,0.0,0.0,70,0.00,,CLR,0.00,VWS V14.01,2013-03-18 01:52:00,
2013-03-17 21:57:00,29.8,21.6,29.92,East,79,0.0,0.0,71,0.00,,CLR,0.00,VWS V14.01,2013-03-18 01:57:00,
2013-03-17 22:02:00,29.7,21.5,29.92,East,90,0.0,0.0,71,0.00,,CLR,0.00,VWS V14.01,2013-03-18 02:02:00,
2013-03-17 22:07:00,29.5,21.3,29.92,ENE,75,0.0,0.0,71,0.00,,CLR,0.00,VWS V14.01,2013-03-18 02:07:00,
2013-03-17 22:12:00,29.5,21.3,29.92,East,79,0.0,0.0,71,0.00,,CLR,0.00,VWS V14.01,2013-03-18 02:12:00,
2013-03-17 22:22:00,29.4,21.2,29.92,East,93,0.0,0.0,71,0.00,,CLR,0.00,VWS V14.01,2013-03-18 02:22:00,
2013-03-17 22:27:00,29.4,21.2,29.92,East,95,0.0,0.0,71,0.00,,CLR,0.00,VWS V14.01,2013-03-18 02:27:00,
2013-03-17 22:32:00,29.4,21.2,29.91,East,99,0.0,0.0,71,0.00,,CLR,0.00,VWS V14.01,2013-03-18 02:32:00,
2013-03-17 22:37:00,29.4,21.2,29.91,East,89,0.0,0.0,71,0.00,,CLR,0.00,VWS V14.01,2013-03-18 02:37:00,
2013-03-17 22:42:00,29.4,21.2,29.91,East,95,0.0,0.0,71,0.00,,CLR,0.00,VWS V14.01,2013-03-18 02:42:00,
2013-03-17 22:52:00,29.4,21.2,29.91,East,93,0.0,0.0,71,0.00,,CLR,0.00,VWS V14.01,2013-03-18 02:52:00,
2013-03-17 22:57:00,29.3,21.4,29.91,ESE,106,0.0,0.0,72,0.00,,CLR,0.00,VWS V14.01,2013-03-18 02:57:00,
2013-03-17 23:07:00,29.1,21.2,29.91,East,79,0.0,0.0,72,0.00,,CLR,0.00,VWS V14.01,2013-03-18 03:07:00,
2013-03-17 23:12:00,29.1,20.9,29.91,East,86,0.0,0.0,71,0.00,,CLR,0.00,VWS V14.01,2013-03-18 03:12:00,
2013-03-17 23:22:00,29.0,20.8,29.91,East,79,0.0,0.0,71,0.00,,CLR,0.00,VWS V14.01,2013-03-18 03:22:00,
2013-03-17 23:27:00,29.0,20.8,29.91,ESE,119,0.0,0.0,71,0.00,,CLR,0.00,VWS V14.01,2013-03-18 03:27:00,
2013-03-17 23:37:00,28.8,20.9,29.89,East,80,0.0,0.0,72,0.00,,CLR,0.00,VWS V14.01,2013-03-18 03:37:00,
2013-03-17 23:47:00,28.7,20.8,29.88,ESE,107,0.0,0.0,72,0.00,,SCT025,0.00,VWS V14.01,2013-03-18 03:47:00,
2013-03-17 23:52:00,28.7,20.8,29.88,ENE,75,0.0,0.0,72,0.00,,SCT025,0.00,VWS V14.01,2013-03-18 03:52:00,
2013-03-17 23:57:00,28.7,20.8,29.88,East,89,0.0,0.0,72,0.00,,SCT025,0.00,VWS V14.01,2013-03-18 03:57:00,